Zurück zum Katalog

FENGYUN 1C DEB

AktivSSO
NORAD 29980·DEBRIS·🇨🇳 China

Gestartet May 10, 1999 von Taiyuan Satellite Launch Center

Loading…

Nächste Überflüge (nächste 24 Stunden)

TLE

AktuellSource: Space-Track

Epoche: Sep 14, 2026, 09:16 UTC

1 29980U 99025LE  26257.38643862  .00000379  00000-0  24561-3 0  9995
2 29980  98.5843  56.9177 0087541 187.5595 203.3547 14.06465853  8641

Verfolge FENGYUN 1C DEB in Echtzeit mit AllMySat

Download on the App Store